RH
13 15 14 12 14 16 17 19 21 23 24 27 26 27 24 30 31 31 31 29 27 28 26 26 29 30 31 33 38 45 50 55 55 62 56 49 52 60 70 69 73 76 86 94
14 18 12 12 14 15 16 19 21 22 24 27 26 27 25 26 30 30 30 30 27 25 25 27 26 26 28 33 39 45 52 56 58 53 70 62 54 50 53 56 71 91 87 80
14 14 12 14 13 16 14 18 20 22 24 25 29 27 28 27 26 29 27 26 26 26 24 26 27 26 26 30 35 43 51 56 60 59 57 61 64 65 65 67 62 64 73 69
10 11 15 14 13 14 16 17 19 22 25 24 24 23 27 25 30 30 27 27 25 26 26 26 24 25 24 27 28 36 45 55 57 63 60 68 54 56 52 56 57 61 68 68
10 12 16 15 14 14 16 18 20 21 22 19 22 22 23 25 26 27 25 24 23 24 24 25 24 24 24 25 26 31 45 58 57 64 64 60 67 54 57 56 69 75 74 73
7 8 11 12 12 13 16 19 19 19 17 22 20 20 16 16 20 20 20 20 21 22 23 24 25 25 25 25 28 32 51 64 65 67 67 72 73 68 60 67 66 63 68 73
6 9 10 11 13 14 14 15 23 28 26 23 18 20 16 15 17 18 21 24 24 23 25 26 29 28 30 30 33 36 57 66 66 65 67 70 71 72 72 70 58 69 71 66
9 9 10 9 11 13 13 13 17 37 28 21 21 21 15 14 18 20 21 24 28 26 22 25 26 28 33 33 37 40 54 61 61 64 70 72 72 57 54 63 60 58 63 63
10 10 8 8 8 9 13 17 11 16 15 19 15 15 12 13 16 18 21 26 28 30 32 36 33 34 37 35 38 45 52 55 59 58 69 72 70 68 68 73 67 53 66 59
8 12 8 9 9 12 13 12 16 16 27 27 16 20 17 16 16 20 20 24 32 33 34 33 34 36 35 32 33 38 47 52 58 59 62 62 64 68 74 69 69 74 74 73
5 6 8 8 12 13 15 15 13 11 13 17 18 14 12 14 16 20 19 26 32 32 34 36 37 37 38 39 40 42 49 59 63 63 64 67 75 74 68 63 70 72 72 71
6 5 8 9 6 8 10 12 12 17 20 14 15 13 7 12 16 21 21 27 31 35 36 36 42 45 51 54 58 61 66 72 74 75 74 81 70 67 64 69 69 73 69 68
5 6 9 8 7 8 10 11 12 11 10 17 14 12 11 15 20 27 25 32 36 39 40 38 42 54 60 58 63 67 68 70 74 72 65 63 63 60 61 63 62 65 69 71
16 4 7 8 10 8 12 10 11 11 14 13 13 12 11 11 16 23 27 35 39 46 47 44 50 65 62 68 72 71 66 64 64 57 58 64 66 69 60 63 63 62 65 65
6 8 8 6 5 6 8 9 10 12 11 13 12 10 11 10 12 16 22 30 38 44 46 50 58 75 74 70 68 66 63 63 60 65 66 68 67 67 69 71 70 70 72 72
6 10 8 9 6 6 7 8 9 11 11 11 10 11 7 8 20 22 24 30 38 44 45 50 65 71 64 65 64 64 65 64 62 65 67 74 74 73 72 72 70 71 70 69
10 8 14 12 8 7 9 7 8 8 8 8 10 9 8 10 12 20 24 28 35 41 44 51 56 59 57 56 56 59 61 62 67 70 71 73 74 75 75 72 71 71 69 66
13 13 12 10 14 16 7 6 6 8 7 6 8 9 8 12 17 19 22 26 32 38 44 51 49 53 55 49 47 52 56 66 69 72 73 73 72 73 73 71 69 68 64 63
13 16 18 17 12 9 10 11 11 12 10 8 10 9 10 16 23 22 23 23 29 36 42 48 47 50 56 52 54 59 61 67 69 70 72 72 72 73 73 70 66 62 60 57
12 17 17 18 19 17 10 14 20 17 12 16 18 17 18 19 18 20 27 25 24 33 39 45 47 50 51 54 54 62 71 71 70 70 73 74 74 72 69 66 64 61 57 57
23 23 17 18 19 13 17 22 23 21 22 24 25 28 30 28 22 29 28 28 25 34 42 46 50 53 54 53 53 63 70 68 69 69 70 73 71 68 63 62 61 60 57 57
23 22 19 22 25 25 20 27 26 32 27 29 31 32 37 36 31 30 30 32 31 38 47 48 52 53 53 54 55 62 78 71 71 72 72 72 68 46 49 64 63 61 61 60
29 19 24 19 21 32 27 24 23 24 30 33 33 30 33 34 30 31 33 35 38 44 51 46 49 58 58 57 56 72 81 74 74 72 70 67 60 54 58 60 61 49 57 42
42 44 30 35 17 20 24 25 26 27 30 29 27 30 32 34 31 31 38 36 42 47 52 50 57 64 68 68 74 79 82 80 78 68 64 58 54 56 52 40 38 33 31 33
42 46 39 35 30 27 27 32 32 30 28 30 28 30 34 34 34 36 40 41 42 51 53 60 71 90 89 89 89 83 83 84 83 66 54 49 41 47 48 44 37 32 45 42
31 32 36 28 39 36 32 29 30 32 33 35 37 37 36 38 40 42 46 49 50 75 78 90 93 94 96 88 83 84 83 81 69 55 43 34 33 36 33 35 38 79 75 82
Wind_Speed
12 12 13 5 9 6 7 6 4 2 1 6 9 9 6 12 14 12 12 12 13 15 16 16 16 15 14 13 13 13 12 11 10 8 7 6 6 6 3 4 5 8 8 9
10 16 13 2 4 6 6 4 4 4 1 8 7 11 8 12 16 14 14 13 12 13 14 16 17 16 15 14 13 12 13 12 11 8 5 4 4 5 5 5 6 8 10 11
20 17 9 7 10 9 10 8 4 7 3 10 10 13 6 11 13 15 15 14 13 13 14 15 16 16 15 13 14 13 12 12 11 11 8 7 6 7 7 5 5 5 9 9
17 15 10 15 14 8 15 6 5 5 8 5 3 6 7 7 11 15 16 16 16 16 15 13 15 15 14 13 13 12 11 11 12 14 11 13 11 9 6 5 2 3 5 6
17 17 16 17 15 4 9 5 3 7 11 9 8 8 8 3 8 11 14 15 15 14 16 16 15 14 13 11 12 10 10 11 11 14 13 11 11 3 4 3 3 3 2 5
20 14 19 22 12 5 1 7 7 8 9 9 7 7 2 4 3 0 3 7 12 15 14 13 13 12 11 11 10 9 10 12 13 14 16 15 11 7 4 5 4 4 2 2
18 15 17 13 14 9 10 13 7 5 6 4 6 9 5 5 2 3 1 2 4 9 11 12 13 12 11 12 10 11 13 14 15 16 15 14 12 6 5 7 1 3 2 2
13 17 17 14 21 15 16 15 10 5 4 6 4 4 5 4 0 1 6 6 4 6 8 12 11 11 9 12 14 14 15 15 16 16 13 10 7 2 1 2 1 1 3 3
12 18 20 16 15 15 11 12 12 11 7 9 3 2 10 5 4 7 7 8 6 7 8 8 9 9 11 13 13 13 15 15 14 13 11 8 6 1 1 4 2 2 2 2
7 8 14 16 14 7 13 6 9 11 8 9 2 4 7 6 10 2 9 9 11 11 11 11 10 11 10 12 13 13 13 12 12 10 8 6 5 4 2 5 4 4 3 1
14 10 9 17 19 20 11 13 12 9 5 8 9 2 6 6 5 2 6 10 13 14 12 12 11 11 11 10 10 12 12 12 9 7 6 4 2 5 5 5 4 5 4 5
18 10 10 18 17 16 15 21 18 11 10 7 7 11 11 4 3 1 7 11 13 13 12 12 13 12 10 10 10 10 10 9 7 6 4 4 6 6 7 7 6 4 5 6
17 11 11 11 15 10 14 16 12 14 11 9 11 8 6 0 2 3 12 13 12 14 15 13 13 11 10 11 12 11 11 11 11 10 10 10 10 9 8 6 6 6 5 4
12 17 15 11 15 17 19 17 15 18 13 12 10 13 9 8 2 5 11 14 14 14 15 14 12 11 13 13 13 12 12 12 12 11 10 10 10 8 8 7 6 6 5 5
15 18 11 14 13 9 20 21 20 17 17 17 11 13 9 12 7 2 11 14 15 16 17 16 15 14 14 14 13 12 12 12 12 11 10 10 9 8 7 6 5 5 4 5
15 11 13 15 14 10 13 16 18 17 19 10 14 16 14 8 2 5 9 16 16 17 18 18 19 18 17 16 15 14 13 13 12 12 12 11 9 8 7 6 5 4 4 4
13 10 8 14 10 12 15 16 14 13 13 13 17 15 15 10 10 5 8 17 19 18 19 20 21 20 18 18 17 16 15 14 13 12 12 11 10 8 7 6 5 4 4 4
7 11 8 6 8 13 7 12 10 7 10 14 17 18 15 9 14 11 9 17 20 19 20 21 20 19 18 17 16 16 15 14 13 12 12 11 9 8 7 5 4 4 4 3
8 6 5 6 11 6 9 7 9 11 9 7 10 15 13 9 13 18 11 13 18 19 19 19 19 20 19 18 17 16 15 14 13 13 11 10 8 7 7 6 5 4 4 4
7 7 8 6 11 11 11 12 4 3 11 5 2 7 8 8 10 4 2 12 18 18 18 19 21 20 19 19 19 18 16 15 13 12 11 9 8 7 7 6 5 4 4 4
8 7 11 9 9 8 9 6 3 10 4 5 8 8 10 10 9 8 10 10 14 17 20 21 21 19 20 19 19 18 16 14 13 13 11 10 9 8 7 6 6 5 4 4
7 7 7 3 5 11 6 6 7 6 4 8 8 9 10 10 10 9 6 10 13 18 20 21 19 18 18 19 17 16 12 12 12 12 11 10 9 7 8 7 6 4 4 4
9 5 8 5 5 6 4 8 6 7 8 7 9 9 10 11 7 2 4 11 13 15 17 18 17 19 18 18 16 15 13 14 13 12 10 10 9 7 7 7 6 6 5 4
3 3 5 5 12 5 5 6 7 9 8 9 9 10 8 9 8 3 4 9 12 14 16 16 18 18 18 15 13 17 16 15 12 11 9 9 8 7 6 6 5 3 3 2
7 0 4 9 12 9 8 6 6 6 6 8 9 8 8 8 6 4 4 7 10 13 14 15 15 11 13 15 17 17 17 14 13 11 9 8 7 7 6 1 1 2 4 5
6 6 7 8 5 5 6 6 7 7 6 7 7 7 5 5 5 1 3 6 7 8 8 9 12 14 12 10 15 15 10 11 14 11 8 7 7 7 6 7 6 4 7 3
Wind_Direction
204 234 230 254 22 346 315 318 336 83 137 260 255 267 230 190 206 202 194 193 186 198 194 200 202 210 215 210 217 214 216 220 210 206 223 224 221 229 219 258 224 240 231 231
202 228 243 50 316 304 303 306 59 130 239 254 279 274 215 207 206 212 203 205 202 186 186 193 204 208 209 210 217 215 219 212 211 206 213 243 246 224 241 224 215 210 217 237
229 217 223 244 257 274 284 313 351 351 284 244 281 249 198 205 216 207 220 212 211 207 195 194 201 209 209 214 215 218 220 218 204 213 193 198 211 221 212 214 248 214 211 220
237 235 220 229 254 290 291 18 278 282 286 346 311 322 160 194 205 216 217 217 215 208 210 216 206 208 213 218 217 213 215 207 196 197 197 212 221 221 205 198 162 263 254 199
218 226 215 238 242 349 329 331 319 301 279 277 147 261 105 165 215 226 218 224 214 216 206 210 218 213 210 213 217 204 198 200 196 193 210 208 223 220 176 188 183 189 205 164
250 208 229 239 226 237 341 239 234 242 254 247 67 312 174 79 9 292 134 208 213 201 210 214 215 223 219 206 211 184 185 184 187 196 207 211 203 190 161 196 216 221 239 290
216 218 221 245 233 192 239 255 258 244 222 59 40 284 8 14 342 265 242 78 183 187 200 201 202 206 208 198 183 176 182 186 189 195 205 210 213 185 190 200 205 185 248 251
205 207 214 199 233 230 220 258 277 242 314 352 144 259 51 22 103 86 147 136 147 179 178 194 188 190 180 175 180 179 182 187 190 195 201 208 210 226 323 302 186 177 260 337
212 229 182 211 210 231 197 234 269 299 231 251 306 298 264 104 118 175 174 160 154 137 139 152 161 151 158 167 176 176 181 187 191 188 200 201 194 114 56 119 126 148 153 32
194 249 196 205 230 209 269 4 213 216 268 270 290 251 254 326 11 137 168 169 133 135 141 145 140 145 148 146 161 166 173 176 188 190 195 190 175 192 158 132 58 8 340 36
239 237 186 208 209 214 187 230 243 313 314 305 284 276 74 308 22 354 155 146 146 143 141 141 140 139 132 132 142 146 161 162 170 179 192 170 163 179 136 95 73 77 76 67
221 222 229 208 226 228 250 219 232 226 220 233 300 286 291 326 343 211 158 147 144 142 144 144 136 131 132 135 134 131 135 139 155 171 169 173 159 122 118 115 103 95 103 89
199 223 223 224 181 203 234 232 255 259 262 283 283 292 80 4 205 193 162 150 150 151 154 153 145 141 146 142 134 135 133 136 141 158 151 135 126 121 113 114 107 109 101 81
204 231 227 225 226 210 212 229 225 242 243 243 233 281 310 315 273 173 178 167 156 158 161 165 159 154 147 138 141 142 145 143 145 148 139 125 112 124 132 120 121 118 114 112
227 227 230 239 253 249 213 221 220 233 252 267 287 292 299 304 335 297 194 180 165 162 163 160 152 159 153 151 148 149 147 146 147 140 131 120 118 116 116 111 108 108 122 96
227 241 232 230 228 233 249 241 241 216 250 276 276 279 284 309 0 272 201 181 181 171 166 161 154 162 160 156 157 156 154 149 147 144 136 133 134 131 121 124 116 113 105 113
212 224 210 229 203 225 230 237 213 222 222 248 255 259 261 296 300 277 213 191 189 178 169 163 166 166 164 162 160 159 154 153 154 147 141 141 142 142 135 123 136 131 108 108
196 218 231 239 175 218 221 186 216 239 281 280 261 266 279 320 308 296 237 198 192 180 169 166 165 165 163 162 161 151 155 156 153 152 149 147 146 131 127 135 135 136 136 124
255 218 173 219 216 225 166 161 196 216 274 298 285 255 265 308 300 272 213 210 189 180 171 169 164 160 161 161 156 154 157 159 160 158 154 151 150 148 147 159 156 162 159 140
229 254 268 176 272 227 232 130 148 263 253 106 276 300 301 294 282 41 303 187 177 173 169 166 160 155 159 158 157 159 164 165 164 159 156 154 154 161 161 157 171 145 141 131
197 238 237 217 244 255 100 127 158 229 15 19 358 341 321 302 310 354 336 192 172 166 162 159 157 159 160 159 160 163 163 168 159 156 151 154 152 150 155 156 150 155 176 114
233 242 220 240 269 249 113 132 250 28 354 359 351 343 328 319 298 288 303 192 171 163 158 160 158 156 156 161 163 159 158 147 142 145 146 144 155 164 149 148 157 170 150 163
245 289 314 295 357 65 172 304 342 350 335 350 338 333 324 314 321 330 210 176 168 166 162 163 154 152 158 162 158 150 129 142 146 140 144 153 157 145 148 160 171 186 184 270
152 351 262 315 244 310 350 333 310 303 306 321 321 322 317 320 321 287 188 179 168 164 175 161 152 158 156 151 148 136 145 145 140 140 152 156 156 158 175 182 184 201 184 184
26 299 277 253 268 300 88 28 11 340 312 302 305 312 317 315 337 322 193 189 176 168 170 155 159 147 140 129 128 145 148 150 131 152 162 164 148 188 155 80 37 124 49 6
192 255 251 292 45 328 330 358 347 322 323 325 309 314 316 302 310 344 153 164 158 121 154 130 129 133 127 133 144 147 148 131 137 152 168 166 153 169 175 163 160 59 74 135